Date,TemperatureHighF,TemperatureAvgF,TemperatureLowF,DewpointHighF,DewpointAvgF,DewpointLowF,HumidityHigh,HumidityAvg,HumidityLow,PressureMaxIn,PressureMinIn,WindSpeedMaxMPH,WindSpeedAvgMPH,GustSpeedMaxMPH,PrecipitationSumIn
2013-1-1,77.6,68.8,62.6,64.9,60.4,56.7,82,75,61,30.17,30.02,6,1,6,0.00
2013-1-2,79.0,70.1,63.2,70.0,64.1,58.2,88,81,73,30.05,29.97,3,0,3,0.00
2013-1-3,80.3,71.4,65.5,69.4,65.2,61.7,89,82,62,30.10,30.01,8,1,8,0.01
2013-1-4,79.9,71.9,68.0,72.5,67.0,63.9,89,85,76,30.21,30.08,5,1,5,0.02
2013-1-5,78.1,69.9,64.3,69.3,64.6,61.0,89,83,73,30.22,30.12,6,2,6,0.00
2013-1-6,80.5,72.8,66.8,71.5,67.0,63.3,89,82,69,30.16,30.03,5,1,5,0.00
2013-1-7,77.0,72.7,69.3,69.9,67.4,65.4,88,83,75,30.12,30.04,5,2,5,0.00
2013-1-8,82.8,74.4,68.8,71.6,67.9,65.3,89,81,62,30.16,30.06,4,2,4,0.00
2013-1-9,84.8,76.5,71.5,71.0,68.6,66.6,88,77,61,30.23,30.12,8,2,8,0.00
2013-1-10,83.0,75.4,70.0,69.0,66.2,63.2,86,74,52,30.25,30.13,8,2,8,0.00
2013-1-11,81.2,73.6,67.7,67.6,64.7,62.8,86,75,59,30.23,30.10,6,2,6,0.00
2013-1-12,82.4,73.7,68.0,69.6,66.2,63.4,87,78,61,30.14,30.04,6,2,6,0.00
2013-1-13,81.4,73.1,67.3,70.2,65.1,61.5,86,76,64,30.09,30.03,5,2,5,0.00
2013-1-14,82.1,72.4,65.9,67.7,63.4,60.2,84,74,58,30.14,30.07,4,1,4,0.00
2013-1-15,81.9,72.7,65.2,69.7,64.2,60.2,86,75,59,30.11,30.02,4,1,4,0.00
2013-1-16,81.7,73.5,65.2,69.9,65.2,60.6,86,76,62,30.08,29.99,5,1,5,0.00
2013-1-17,80.8,70.8,64.8,72.0,64.1,54.9,88,79,68,30.10,29.98,10,3,10,0.00
2013-1-18,66.1,61.7,52.2,56.4,51.7,41.9,79,70,61,30.26,30.10,8,3,8,0.00
2013-1-19,73.8,67.7,61.7,65.1,61.2,55.8,88,80,73,30.20,30.07,4,2,4,0.00
2013-1-20,78.5,70.4,65.7,69.5,64.9,62.0,88,83,73,30.13,30.00,3,1,3,0.00
2013-1-21,76.0,69.4,66.2,68.8,64.3,61.9,88,84,77,30.07,29.98,9,2,9,0.00
2013-1-22,70.4,65.3,60.1,61.9,55.2,46.2,84,70,57,30.22,30.02,10,3,10,0.00
2013-1-23,71.8,62.8,56.2,54.9,49.2,44.4,69,61,51,30.28,30.18,7,3,7,0.00
2013-1-24,73.3,63.5,55.1,54.5,50.2,46.4,76,63,42,30.28,30.17,5,2,5,0.00
2013-1-25,74.2,64.2,55.4,58.9,53.3,48.6,78,68,56,30.26,30.15,5,1,5,0.00
2013-1-26,75.2,65.0,56.5,56.4,53.0,48.6,76,66,46,30.23,30.14,5,1,5,0.00
2013-1-27,78.7,68.5,59.4,63.1,57.8,51.1,85,69,55,30.24,30.16,5,2,5,0.00
2013-1-28,81.0,71.9,65.0,66.3,61.8,58.5,84,71,57,30.27,30.17,6,2,6,0.00
2013-1-29,82.3,73.5,66.6,68.9,65.1,60.8,85,76,63,30.20,30.07,6,2,6,0.00
2013-1-30,80.5,72.9,67.7,68.0,65.8,62.6,86,79,64,30.08,29.94,8,3,8,0.00
2013-1-31,72.4,66.2,55.3,68.3,58.2,40.2,87,76,54,30.18,29.92,8,3,8,0.02